{"data":{"norad_id":52563,"epoch":"2026-05-25T00:12:56.750688Z","epoch_age_seconds":70305,"freshness":"FRESH","line1":"1 52563U 22051AG  26145.00899017 -.00000127  00000+0  10136-4 0  9998","line2":"2 52563  53.2147 151.5096 0001173  71.4516 288.6604 15.08838556222894","mean_motion":15.08838556,"eccentricity":0.0001173,"inclination_deg":53.2147,"raan_deg":151.5096,"arg_perigee_deg":71.4516,"mean_anomaly_deg":288.6604,"bstar":1.0136e-5,"rev_number":22289,"period_min":95.437646014131,"perigee_km":538.93633481059,"apogee_km":540.5592705853,"semimajor_km":6917.8848026979,"source":"CELESTRAK","updated_at":"2026-05-25T13:38:17.167032Z"}}